Location: Lugano
(46.0000°N, 8.9670°E)
Time: 04:22:28
(UTC+02:00)

AO-73 - Visible Passes

Search period start: 16 April 2026 00:00
Search period end: 26 April 2026 00:00
Orbit: 514 x 567 km, 97.8° (Epoch: 15 April)

Date Brightness Start Highest point End Pass type
(mag) Time Alt. Az. Time Alt. Az. Time Alt. Az.
16 Apr ? 03:59:34 10° E 04:00:03 10° E 04:00:32 10° E visible
16 Apr ? 05:31:10 10° N 05:35:00 69° WNW 05:38:52 10° SSW visible
17 Apr ? 05:23:54 10° NNE 05:27:46 84° WNW 05:31:40 10° SSW visible
18 Apr ? 05:16:38 10° NNE 05:20:31 80° ESE 05:24:25 10° S visible
19 Apr ? 05:09:24 10° NNE 05:13:15 65° E 05:17:09 10° S visible
20 Apr ? 05:02:09 10° NNE 05:05:58 53° E 05:09:49 10° S visible
21 Apr ? 04:54:57 10° NNE 04:58:41 43° E 05:02:26 10° S visible
22 Apr ? 04:47:44 10° NNE 04:51:22 36° E 04:55:01 10° SSE visible
23 Apr ? 04:40:33 10° NE 04:44:02 30° E 04:47:32 10° SSE visible
24 Apr ? 04:33:24 10° NE 04:36:41 25° E 04:39:59 10° SSE visible
25 Apr ? 04:26:17 10° NE 04:29:19 21° E 04:32:22 10° SE visible
